CZ-6A R/B, 63921

Orbit data source: Space-Track

CZ-6A R/B, 63921 is space debris in LEO originally from a launch on Sun, 11 May 2025 UTC launched from the Taiyaun Space Center, China (TSC). Debris objects in space refer to the collection of defunct objects orbiting the Earth. Examples of debris include non-operational satellites, rocket bodies, and fragments generated from explosions, collisions, or faulty payload assembly.

Loading next visibility...
Identifier
63921, 2025-096D
Orbit
LEO
Country
Flag of CNCN / PRC
Related business
Manufacturer
Unknown
Mission
Spacecraft
Bus & Motor
Unknown
Mass
Unknown
Launch date (UTC)
2025-05-11 (1 year ago)
Launch vehicle
Unknown
Launch site
Taiyaun Space Center, China (TSC)
Object type
Payload
Rocket body
Debris
Shape & HBR
Unknown shape, 3.3 m
Radar Cross Section
Large (>1 m²)

Expand to show TLE details & history
Last TLE update: 13 hours ago

TLE from 13 hours ago
0 CZ-6A R/B
1 63921U 25096D   26171.43568735  .00000241  00000-0  91568-4 0  9991
2 63921  85.9932 182.2788 0014958  47.7736 312.4722 14.26601658 57581
Epoch: 2026-06-20T10:27Z
TLE epoch observation values (Epoch: 2026-06-20T10:27:23.387Z)
Latitude
0.00006°
Longitude
116.78101°
Altitude
798.901 km
Speed
7.458 km/s
True Right ascension
12h 09m 06s
True Declination
0° 00' 00"
Sunlit
Object was in daylight at epoch
Visualization orbit readout
Latitude
Unknown
Longitude
Unknown
Altitude
Unknown
Speed
Unknown
Apparent Right ascension
Unknown
Apparent Declination
Unknown
Sunlit
N/A
Visualization observer readout
Local Sidereal Time
10:20:00
Azimuth
Unknown
Elevation
Unknown
Doppler factor
Unknown
Orbital elements
Apogee altitude
810.834 km
Perigee altitude
789.359 km
Semi-major axis
7,178.233 km
Eccentricity
0.0015
Inclination
85.9932°
RAAN
182.2788°
Arg. of periapsis
47.7736°
True anomaly
312.34561°
Mean anomaly
312.4722°
Eccentric anomaly
312.40892°
Mean motion
3.56876 °/min
Orbital period
100.88 mins
BSTAR
0.000091568
Loading maneuver chart data...
Computing Atmospheric mass density...
Loading historical data...
Loading historical data...
Loading historical data...
Loading historical data...
Loading historical data...
Loading historical data...
Loading historical data...
Other satellites on launch #96 in the year 2025 (2025-05-11 UTC)

Documentation

Showing up to 5 results
|